STARLINK-35869, 66353

Orbit data source: Space-Track

STARLINK-35869, 66353 is a payload satellite owned by SpaceX/Seattle (US) in LEO that was launched on Thu, 06 Nov 2025 UTC via an FALCON 9 launch vehicle from the Air Force Western Test Range (AFWTR). Payload-class satellites include a variety of spacecraft equipped with specific instruments for various scientific and technological missions. These include communications satellites like Starlink; space stations such as the ISS; scientific satellites like the Hubble; Earth observation satellites from companies like Planet Labs, Umbra, and HawkEye 360; GPS; miniature CubeSats for education and research; and military/defense satellites.

Loading next visibility...
Identifier
66353, 2025-254F
Orbit
LEO
Country
Flag of USUS
Related business
Manufacturer
SpaceX/Seattle
Mission
Operational Commercial Communications
Bus & Motor
STARLINK V2MO, Unknown motor
Mass
575 kg wet, ~530 kg dry
Launch date (UTC)
2025-11-06 (7 months ago)
Launch vehicle
FALCON 9
Launch site
Air Force Western Test Range (AFWTR)
Object type
Payload
Rocket body
Debris
Shape & HBR
Box + 2 Pan, 17.7 m
Radar Cross Section
36.964 m², Large (>1 m²)

Expand to show TLE details & history
Last TLE update: 1 day ago

TLE from 1 day ago
0 STARLINK-35869
1 66353U 25254F   26170.86086982  .00015309  00000-0  52782-3 0  9999
2 66353  53.1590 117.5127 0001493  99.1268 260.9901 15.30206449 34620
Epoch: 2026-06-19T20:39Z
TLE epoch observation values (Epoch: 2026-06-19T20:39:39.152Z)
Latitude
-0.00008°
Longitude
-100.48427°
Altitude
476.256 km
Speed
7.629 km/s
True Right ascension
07h 50m 03s
True Declination
0° 00' 00"
Sunlit
Object was in daylight at epoch
Visualization orbit readout
Latitude
Unknown
Longitude
Unknown
Altitude
Unknown
Speed
Unknown
Apparent Right ascension
Unknown
Apparent Declination
Unknown
Sunlit
N/A
Visualization observer readout
Local Sidereal Time
07:16:47
Azimuth
Unknown
Elevation
Unknown
Doppler factor
Unknown
Orbital elements
Apogee altitude
476.476 km
Perigee altitude
474.429 km
Semi-major axis
6,853.589 km
Eccentricity
0.00015
Inclination
53.159°
RAAN
117.5127°
Arg. of periapsis
99.1268°
True anomaly
260.9732°
Mean anomaly
260.9901°
Eccentric anomaly
260.98165°
Mean motion
3.8253 °/min
Orbital period
94.11 mins
BSTAR
0.00052782
Loading maneuver chart data...
Computing Atmospheric mass density...
Loading historical data...
Loading historical data...
Loading historical data...
Loading historical data...
Loading historical data...
Loading historical data...
Loading historical data...

Documentation

Showing up to 5 results
|